DW5247 Lemo FI current weather conditions

sailwx.info

Wind from 023 at 2 knots gusting 6

Air temperature 6.7° C
Dewpoint 2.6° C

Last reported at 2019-Sep-21 17:02 UTC.
Time now 2019-Sep-21 18:03 UTC

Location: N 62°41' E 029°49'.
View on Google Maps.

See reports from other nearby stations

  
Tides and Currents Weather Stations Pressure Air Temp Water Temp Dewpoint Dewpoint Depression Visibility Wind Speed Wind Dir Waves Ship Positions
date/time (UTC)wind fromknots sea level pressurealtimeterstation pressurevisibilityair tempwater tempwave heightnotes
2019-Sep-21 17:02 023 2 gusting 6 6.7
2019-Sep-21 16:57 180 2 gusting 6 6.7
2019-Sep-21 16:52 045 2 gusting 6 6.7
2019-Sep-21 16:47 068 1 gusting 6 6.7
2019-Sep-21 16:42 113 2 gusting 9 6.7
2019-Sep-21 16:37 135 3 gusting 9 6.7
2019-Sep-21 16:32 158 5 gusting 10 6.7
2019-Sep-21 16:27 158 5 gusting 10 6.7
2019-Sep-21 16:22 135 3 gusting 10 6.7
2019-Sep-21 16:17 113 1 gusting 3 6.7
2019-Sep-21 16:12 113 0 gusting 1 6.7
2019-Sep-21 16:07 135 0 gusting 1 6.7
2019-Sep-21 16:02 023 0 gusting 1 7.2
2019-Sep-21 15:57 045 0 gusting 1 7.2
2019-Sep-21 15:52 023 0 gusting 2 7.2
2019-Sep-21 15:47 023 1 gusting 2 7.2
2019-Sep-21 15:42 023 1 gusting 5 7.2
2019-Sep-21 15:37 023 1 gusting 5 7.2
2019-Sep-21 15:32 023 1 gusting 5 7.8
2019-Sep-21 15:27 045 1 gusting 2 7.8
2019-Sep-21 15:22 023 0 gusting 1 7.8
2019-Sep-21 15:17 023 7.8
2019-Sep-21 15:12 045 0 gusting 1 7.8
2019-Sep-21 15:07 068 0 gusting 1 7.8
2019-Sep-21 15:02 023 7.8
2019-Sep-21 14:57 045 7.8
2019-Sep-21 14:52 045 8.3
2019-Sep-21 14:47 045 8.3
2019-Sep-21 14:42 068 8.3
2019-Sep-21 14:37 090 8.3
2019-Sep-21 14:32 023 8.3
2019-Sep-21 14:27 023 8.3
2019-Sep-21 14:22 135 8.3
2019-Sep-21 14:17 068 8.3
2019-Sep-21 14:12 090 8.3
2019-Sep-21 14:07 090 8.3
2019-Sep-21 14:02 090 8.3
2019-Sep-21 13:57 045 8.3
2019-Sep-21 13:52 045 8.3
2019-Sep-21 13:47 090 8.3
2019-Sep-21 13:42 113 8.3
2019-Sep-21 13:37 135 0 gusting 2 8.3
2019-Sep-21 13:32 135 0 gusting 1 8.3
2019-Sep-21 13:27 293 0 gusting 1 8.3
2019-Sep-21 13:22 113 8.3
2019-Sep-21 13:17 135 8.3
2019-Sep-21 13:12 113 0 gusting 2 8.3
2019-Sep-21 13:07 068 0 gusting 2 8.3
2019-Sep-21 13:02 113 0 gusting 2 8.3
2019-Sep-21 12:57 135 0 gusting 3 8.3
2019-Sep-21 12:52 180 1 gusting 3 8.3
2019-Sep-21 12:47 113 1 gusting 3 8.3
2019-Sep-21 12:42 135 1 gusting 3 8.3
2019-Sep-21 12:37 113 1 gusting 3 8.3
2019-Sep-21 12:32 090 0 gusting 3 8.3
2019-Sep-21 12:27 203 8.3
2019-Sep-21 12:22 090 8.3
2019-Sep-21 12:17 135 0 gusting 3 8.3
2019-Sep-21 12:12 113 0 gusting 3 8.3
2019-Sep-21 12:07 068 0 gusting 3 8.3
2019-Sep-21 12:02 135 0 gusting 3 8.3
2019-Sep-21 11:57 158 0 gusting 2 8.3
2019-Sep-21 11:52 180 0 gusting 4 8.3
2019-Sep-21 11:47 225 1 gusting 4 8.3
2019-Sep-21 11:42 113 1 gusting 4 8.3
2019-Sep-21 11:37 135 1 gusting 4 8.3
2019-Sep-21 11:32 090 1 gusting 4 8.3
2019-Sep-21 11:27 135 0 gusting 2 8.3
2019-Sep-21 11:22 113 0 gusting 5 8.3
2019-Sep-21 11:17 090 1 gusting 6 8.3
2019-Sep-21 11:12 135 2 gusting 6 8.3
2019-Sep-21 11:07 158 2 gusting 6 8.3
2019-Sep-21 11:02 180 2 gusting 5 8.3
2019-Sep-21 10:57 068 2 gusting 5 8.3
2019-Sep-21 10:52 113 1 gusting 4 8.3
2019-Sep-21 10:47 225 1 gusting 4 8.3
2019-Sep-21 10:42 113 2 gusting 4 8.3
2019-Sep-21 10:37 158 2 gusting 4 8.3
2019-Sep-21 10:32 135 2 gusting 3 8.3
2019-Sep-21 10:27 113 2 gusting 4 8.3
2019-Sep-21 10:22 090 2 gusting 4 8.3
2019-Sep-21 10:17 068 2 gusting 3 8.3
2019-Sep-21 10:12 158 1 gusting 3 8.3
2019-Sep-21 10:07 113 1 gusting 3 7.8
2019-Sep-21 10:02 045 1 gusting 3 7.8
2019-Sep-21 09:57 068 1 gusting 3 7.8
2019-Sep-21 09:52 225 1 gusting 3 7.8
2019-Sep-21 09:47 113 1 gusting 3 7.8
2019-Sep-21 09:42 158 1 gusting 4 7.8
2019-Sep-21 09:37 068 1 gusting 6 7.8
2019-Sep-21 09:32 203 1 gusting 6 7.8
2019-Sep-21 09:27 113 1 gusting 6 7.8
2019-Sep-21 09:22 068 1 gusting 4 7.2
2019-Sep-21 09:17 090 1 gusting 3 7.2
2019-Sep-21 09:12 158 1 gusting 4 6.7
2019-Sep-21 09:07 158 1 gusting 4 6.7
2019-Sep-21 09:02 248 1 gusting 3 6.7
2019-Sep-21 08:57 135 0 gusting 3 6.7
2019-Sep-21 08:52 068 1 gusting 3 6.7
2019-Sep-21 08:47 180 1 gusting 3 6.7
2019-Sep-21 08:42 135 0 gusting 3 6.1
2019-Sep-21 08:37 158 0 gusting 3 6.1
2019-Sep-21 08:32 180 0 gusting 3 5.6
2019-Sep-21 08:27 135 0 gusting 2 5.6
2019-Sep-21 08:22 293 5.6
2019-Sep-21 08:17 293 5.6
2019-Sep-21 08:12 225 5.0
2019-Sep-21 08:07 270 5.0
2019-Sep-21 08:02 248 4.4
2019-Sep-21 07:57 293 4.4
2019-Sep-21 07:52 180 4.4
2019-Sep-21 07:47 180 3.9
2019-Sep-21 07:42 180 3.9
2019-Sep-21 07:37 180 3.9
2019-Sep-21 07:32 248 3.3
2019-Sep-21 07:27 248 3.3
2019-Sep-21 07:22 248 3.3
2019-Sep-21 07:17 248 3.3
2019-Sep-21 07:12 248 2.8
2019-Sep-21 07:07 225 2.8
2019-Sep-21 07:02 248 2.2
2019-Sep-21 06:57 270 2.2
2019-Sep-21 06:52 248 2.2
2019-Sep-21 06:47 248 1.7
2019-Sep-21 06:42 248 1.7
2019-Sep-21 06:37 248 1.7
2019-Sep-21 06:32 248 1.1
2019-Sep-21 06:27 248 1.1
2019-Sep-21 06:22 248 1.1
2019-Sep-21 06:17 113 1.1
2019-Sep-21 06:12 113 0.6
2019-Sep-21 06:07 113 0.6
2019-Sep-21 06:02 113 0.6
2019-Sep-21 05:57 113 -0.0
2019-Sep-21 05:52 113 -0.0
2019-Sep-21 05:47 113 -0.0
2019-Sep-21 05:42 113 -0.0
2019-Sep-21 05:37 113 -0.0
2019-Sep-21 05:32 113 -0.0
2019-Sep-21 05:27 113 -0.0
2019-Sep-21 05:22 090 -0.6
2019-Sep-21 05:17 113 -0.6
2019-Sep-21 05:12 113 -0.6
2019-Sep-21 05:07 113 -0.6
2019-Sep-21 05:02 113 -0.6
2019-Sep-21 04:57 113 -0.6
2019-Sep-21 04:52 113 -0.6
2019-Sep-21 04:47 113 -0.6
2019-Sep-21 04:42 113 -0.6
2019-Sep-21 04:37 113 -0.6
2019-Sep-21 04:32 113 -1.1
2019-Sep-21 04:27 113 -1.1
2019-Sep-21 04:22 113 -1.1
2019-Sep-21 04:17 113 -1.1
2019-Sep-21 04:12 090 -1.1
2019-Sep-21 04:07 113 -1.1
2019-Sep-21 04:02 113 -1.1
2019-Sep-21 03:57 113 -1.1
2019-Sep-21 03:52 113 -1.1
2019-Sep-21 03:47 113 -1.1
2019-Sep-21 03:42 113 -1.1
2019-Sep-21 03:37 113 -1.1
2019-Sep-21 03:32 113 -1.1
2019-Sep-21 03:27 113 -1.1
2019-Sep-21 03:22 113 -1.1
2019-Sep-21 03:17 113 -1.1
2019-Sep-21 03:12 113 -1.1
2019-Sep-21 03:07 113 -1.1
2019-Sep-21 03:02 113 -1.1
2019-Sep-21 02:57 113 -1.1
2019-Sep-21 02:52 113 -1.1
2019-Sep-21 02:47 113 -1.1
2019-Sep-21 02:42 113 -1.1
2019-Sep-21 02:37 090 -1.1
2019-Sep-21 02:32 090 -1.1
2019-Sep-21 02:27 090 -1.1
2019-Sep-21 02:22 090 -1.1
2019-Sep-21 02:17 090 -1.1
2019-Sep-21 02:12 090 -1.1
2019-Sep-21 02:07 090 -1.1
2019-Sep-21 02:02 090 -1.1
2019-Sep-21 01:57 090 -0.6
2019-Sep-21 01:52 090 -0.6
2019-Sep-21 01:47 068 -0.6
2019-Sep-21 01:42 068 -0.6
2019-Sep-21 01:37 068 -0.6
2019-Sep-21 01:32 090 -0.6
2019-Sep-21 01:27 113 -0.6
2019-Sep-21 01:22 090 -0.6
2019-Sep-21 01:17 068 -0.6
2019-Sep-21 01:12 068 -0.6
2019-Sep-21 01:07 068 -0.6
2019-Sep-21 01:02 090 -0.6
2019-Sep-21 00:57 090 -0.6
2019-Sep-21 00:52 090 -0.6
2019-Sep-21 00:47 090 -0.6
2019-Sep-21 00:42 068 -0.6
2019-Sep-21 00:37 068 -0.6
2019-Sep-21 00:32 068 -0.0
2019-Sep-21 00:27 090 -0.0
2019-Sep-21 00:22 090 -0.0
2019-Sep-21 00:17 090 -0.0
2019-Sep-21 00:12 090 -0.0
2019-Sep-21 00:07 090 -0.0
2019-Sep-21 00:02 090 -0.0
2019-Sep-20 23:57 090 -0.0
2019-Sep-20 23:52 090 0.6
2019-Sep-20 23:47 090 0.6
2019-Sep-20 23:42 090 0.6
2019-Sep-20 23:37 248 0.6
2019-Sep-20 23:32 248 0.6
2019-Sep-20 23:27 248 0.6
2019-Sep-20 23:22 248 0.6
2019-Sep-20 23:17 248 1.1
2019-Sep-20 23:12 248 1.1
2019-Sep-20 23:07 248 1.1
2019-Sep-20 23:02 113 1.1
2019-Sep-20 22:57 090 1.1
2019-Sep-20 22:52 045 1.1
2019-Sep-20 22:47 113 1.7
2019-Sep-20 22:42 023 1.7
2019-Sep-20 22:37 023 1.7
2019-Sep-20 22:32 068 1.1
2019-Sep-20 22:27 068 1.1
2019-Sep-20 22:22 045 1.1
2019-Sep-20 22:17 090 1.1
2019-Sep-20 22:12 068 1.1
2019-Sep-20 22:07 068 1.1
2019-Sep-20 22:02 068 1.1
2019-Sep-20 21:57 090 1.1
2019-Sep-20 21:52 113 1.1
2019-Sep-20 21:47 045 1.1
2019-Sep-20 21:42 045 1.7
2019-Sep-20 21:37 045 1.7
2019-Sep-20 21:32 135 1.7
2019-Sep-20 21:27 068 1.7
2019-Sep-20 21:22 135 2.2
2019-Sep-20 21:17 180 2.2
2019-Sep-20 21:12 293 2.8
2019-Sep-20 21:06 293 2.8
2019-Sep-20 20:57 248 2.8
2019-Sep-20 20:52 225 2.8
2019-Sep-20 20:47 248 2.8
2019-Sep-20 20:42 113 3.3
2019-Sep-20 20:37 225 3.3
2019-Sep-20 20:32 023 3.3
2019-Sep-20 20:27 113 0 gusting 3 3.3
2019-Sep-20 20:22 045 2.8
2019-Sep-20 20:17 113 2.8
2019-Sep-20 20:12 023 2.8
2019-Sep-20 20:07 023 2.8
2019-Sep-20 20:02 045 2.8
2019-Sep-20 19:57 2.8
2019-Sep-20 19:52 068 2.8
2019-Sep-20 19:47 068 2.8
2019-Sep-20 19:42 045 2.8
2019-Sep-20 19:37 045 0 gusting 1 2.8
2019-Sep-20 19:32 023 2.8
2019-Sep-20 19:27 023 2.8
2019-Sep-20 19:22 045 2.8
2019-Sep-20 19:17 2.8
2019-Sep-20 19:12 045 2.8
2019-Sep-20 19:07 315 2.8
2019-Sep-20 19:02 023 3.3
2019-Sep-20 18:57 3.3
2019-Sep-20 18:52 068 3.3
2019-Sep-20 18:47 338 3.3
2019-Sep-20 18:42 045 3.3
2019-Sep-20 18:37 023 3.3
2019-Sep-20 18:32 090 3.3
2019-Sep-20 18:27 068 0 gusting 2 3.3
2019-Sep-20 18:22 045 0 gusting 2 3.3
2019-Sep-20 18:17 045 3.3
2019-Sep-20 18:12 338 3.3
2019-Sep-20 18:07 023 3.3
2019-Sep-20 18:02 045 3.3
2019-Sep-20 17:57 068 3.3
2019-Sep-20 17:52 023 3.3
2019-Sep-20 17:47 023 3.3
2019-Sep-20 17:42 090 3.3
2019-Sep-20 17:37 023 3.3
2019-Sep-20 17:32 023 3.3
2019-Sep-20 17:27 023 0 gusting 1 3.9
2019-Sep-20 17:22 068 3.9
2019-Sep-20 17:17 045 3.9
2019-Sep-20 17:12 045 0 gusting 1 3.9
2019-Sep-20 17:07 045 0 gusting 1 4.4
2019-Sep-20 17:02 023 0 gusting 2 4.4
2019-Sep-20 16:57 045 0 gusting 2 4.4
2019-Sep-20 16:52 023 4.4
2019-Sep-20 16:47 045 5.0
2019-Sep-20 16:42 045 0 gusting 2 5.0
2019-Sep-20 16:37 090 0 gusting 2 5.0
2019-Sep-20 16:32 045 0 gusting 2 5.6
2019-Sep-20 16:27 023 0 gusting 1 5.6
2019-Sep-20 16:22 045 0 gusting 2 6.1
2019-Sep-20 16:17 045 0 gusting 2 6.1
2019-Sep-20 16:12 023 0 gusting 1 6.1
2019-Sep-20 16:07 023 0 gusting 1 6.1
2019-Sep-20 16:02 045 6.7
2019-Sep-20 15:57 023 0 gusting 1 6.7
2019-Sep-20 15:52 045 0 gusting 1 6.7
2019-Sep-20 15:47 023 0 gusting 0 7.2
2019-Sep-20 15:42 068 7.2
2019-Sep-20 15:37 023 7.2
2019-Sep-20 15:32 045 7.8
2019-Sep-20 15:27 068 7.8
2019-Sep-20 15:22 045 0 gusting 5 7.8
2019-Sep-20 15:17 270 0 gusting 5 7.8
2019-Sep-20 15:12 068 0 gusting 5 7.8
2019-Sep-20 15:07 068 1 gusting 3 8.3
2019-Sep-20 15:02 045 1 gusting 4 8.3
2019-Sep-20 14:57 045 1 gusting 4 8.3
2019-Sep-20 14:52 068 1 gusting 3 8.3
2019-Sep-20 14:47 113 1 gusting 6 8.3
2019-Sep-20 14:42 023 2 gusting 6 8.3
2019-Sep-20 14:37 068 2 gusting 6 8.9
2019-Sep-20 14:32 068 2 gusting 6 8.9
2019-Sep-20 14:27 090 2 gusting 6 8.9
2019-Sep-20 14:22 338 2 gusting 4 8.9
2019-Sep-20 14:17 158 1 gusting 4 8.9
2019-Sep-20 14:12 113 1 gusting 5 8.9
2019-Sep-20 14:07 045 1 gusting 5 8.9
2019-Sep-20 14:02 113 2 gusting 6 8.9
2019-Sep-20 13:57 045 2 gusting 6 8.9
2019-Sep-20 13:52 090 2 gusting 4 8.9
2019-Sep-20 13:47 090 1 gusting 4 8.9
2019-Sep-20 13:42 180 2 gusting 6 8.9
2019-Sep-20 13:37 135 2 gusting 6 8.9
2019-Sep-20 13:32 068 2 gusting 6 8.9
2019-Sep-20 13:27 135 2 gusting 6 9.4
2019-Sep-20 13:22 135 2 gusting 6 9.4
2019-Sep-20 13:17 113 3 gusting 6 9.4
2019-Sep-20 13:12 068 3 gusting 7 9.4
2019-Sep-20 13:07 045 3 gusting 7 9.4
2019-Sep-20 13:02 338 3 gusting 8 9.4
2019-Sep-20 12:57 068 4 gusting 8 8.9
2019-Sep-20 12:52 023 4 gusting 10 8.9
2019-Sep-20 12:47 023 3 gusting 10 8.9
2019-Sep-20 12:42 045 4 gusting 10 8.9
2019-Sep-20 12:37 113 4 gusting 7 8.9
2019-Sep-20 12:32 113 2 gusting 5 8.9
2019-Sep-20 12:27 113 2 gusting 5 8.9
2019-Sep-20 12:22 090 2 gusting 5 8.3
2019-Sep-20 12:17 135 2 gusting 4 8.3
2019-Sep-20 12:12 023 2 gusting 4 8.9
2019-Sep-20 12:07 315 1 gusting 6 8.9
2019-Sep-20 12:02 068 2 gusting 6 8.9
2019-Sep-20 11:57 045 2 gusting 6 8.9
2019-Sep-20 11:52 068 3 gusting 12 8.9
2019-Sep-20 11:47 113 3 gusting 12 8.9
2019-Sep-20 11:42 158 4 gusting 12 8.9
2019-Sep-20 11:37 068 4 gusting 9 8.9
2019-Sep-20 11:32 180 3 gusting 8 8.9
2019-Sep-20 11:27 068 3 gusting 8 8.9
2019-Sep-20 11:22 113 3 gusting 6 8.9
2019-Sep-20 11:17 023 3 gusting 6 8.9
2019-Sep-20 11:12 113 3 gusting 6 8.9
2019-Sep-20 11:07 135 4 gusting 6 8.9
2019-Sep-20 11:02 090 4 gusting 6 8.9
2019-Sep-20 10:57 023 4 gusting 7 8.9
2019-Sep-20 10:52 023 4 gusting 7 8.3
2019-Sep-20 10:47 068 4 gusting 5 8.3
2019-Sep-20 10:42 113 3 gusting 10 8.3
2019-Sep-20 10:37 068 2 gusting 10 8.3
2019-Sep-20 10:32 135 3 gusting 10 8.3
2019-Sep-20 10:27 158 5 gusting 9 8.3
2019-Sep-20 10:22 045 5 gusting 9 8.3
2019-Sep-20 10:17 338 4 gusting 9 8.3
2019-Sep-20 10:12 090 3 gusting 6 7.8
2019-Sep-20 10:07 135 2 gusting 6 7.8
2019-Sep-20 10:02 045 3 gusting 9 7.8
2019-Sep-20 09:57 068 3 gusting 9 7.8
2019-Sep-20 09:52 045 3 gusting 9 7.8
2019-Sep-20 09:47 090 3 gusting 7 7.8
2019-Sep-20 09:42 068 3 gusting 6 7.8
2019-Sep-20 09:37 023 3 gusting 6 7.8
2019-Sep-20 09:32 045 2 gusting 6 7.8
2019-Sep-20 09:27 158 1 gusting 5 7.2
2019-Sep-20 09:22 090 2 gusting 5 7.2
2019-Sep-20 09:17 113 3 gusting 5 7.2
2019-Sep-20 09:12 045 3 gusting 9 6.7
2019-Sep-20 09:07 045 3 gusting 9 6.7
2019-Sep-20 09:02 068 3 gusting 7 6.7
2019-Sep-20 08:57 045 2 gusting 7 6.7
2019-Sep-20 08:52 113 2 gusting 8 6.7
2019-Sep-20 08:47 023 3 gusting 8 6.7
2019-Sep-20 08:42 113 3 gusting 6 6.1
2019-Sep-20 08:37 113 2 gusting 6 6.1
2019-Sep-20 08:32 158 2 gusting 6 6.1
2019-Sep-20 08:27 135 1 gusting 3 5.6
2019-Sep-20 08:22 045 1 gusting 4 6.1
2019-Sep-20 08:17 068 1 gusting 4 5.6
2019-Sep-20 08:12 135 2 gusting 5 5.6
2019-Sep-20 08:07 113 2 gusting 5 5.6
2019-Sep-20 08:02 045 2 gusting 6 5.6
2019-Sep-20 07:57 068 2 gusting 6 5.6
2019-Sep-20 07:52 090 2 gusting 6 5.6
2019-Sep-20 07:47 135 2 gusting 4 5.0
2019-Sep-20 07:42 113 2 gusting 4 5.0
2019-Sep-20 07:37 090 2 gusting 5 5.0
2019-Sep-20 07:32 4.4
2019-Sep-20 07:27 113 1 gusting 5 4.4
2019-Sep-20 07:22 068 1 gusting 4 4.4
2019-Sep-20 07:17 068 1 gusting 4 4.4
2019-Sep-20 07:12 135 1 gusting 4 4.4
2019-Sep-20 07:07 113 1 gusting 2 4.4
2019-Sep-20 07:02 135 1 gusting 3 3.9
2019-Sep-20 06:57 023 0 gusting 3 3.9
2019-Sep-20 06:52 113 0 gusting 2 3.9
2019-Sep-20 06:47 113 0 gusting 7 3.9
2019-Sep-20 06:42 135 1 gusting 7 3.9
2019-Sep-20 06:37 068 2 gusting 7 3.9
2019-Sep-20 06:32 045 2 gusting 5 3.3
2019-Sep-20 06:27 113 1 gusting 3 3.3
2019-Sep-20 06:22 113 0 gusting 3 3.3
2019-Sep-20 06:17 135 0 gusting 3 3.3
2019-Sep-20 06:12 023 0 gusting 3 3.3
2019-Sep-20 06:07 045 3.3
2019-Sep-20 06:02 338 0 gusting 2 2.8
2019-Sep-20 05:57 113 0 gusting 2 2.8
2019-Sep-20 05:52 113 0 gusting 2 2.8
2019-Sep-20 05:47 068 0 gusting 2 2.8
2019-Sep-20 05:42 135 0 gusting 5 2.8
2019-Sep-20 05:37 068 0 gusting 5 2.8
2019-Sep-20 05:32 135 0 gusting 5 2.2
2019-Sep-20 05:27 113 1 gusting 5 2.2
2019-Sep-20 05:22 135 1 gusting 5 2.2
2019-Sep-20 05:17 045 1 gusting 3 2.2
2019-Sep-20 05:12 068 1 gusting 3 2.2
2019-Sep-20 05:07 023 1 gusting 5 2.2
2019-Sep-20 05:02 068 1 gusting 5 1.7
2019-Sep-20 04:57 113 1 gusting 6 1.7
2019-Sep-20 04:52 068 1 gusting 6 1.7
2019-Sep-20 04:47 023 1 gusting 6 1.7
2019-Sep-20 04:42 090 1 gusting 4 1.7
2019-Sep-20 04:37 068 1 gusting 3 1.7
2019-Sep-20 04:32 090 1 gusting 3 1.1
2019-Sep-20 04:27 113 0 gusting 3 1.1
2019-Sep-20 04:22 135 0 gusting 2 1.1
2019-Sep-20 04:17 113 0 gusting 2 1.1
2019-Sep-20 04:12 158 0 gusting 2 1.1
2019-Sep-20 04:07 113 0 gusting 2 0.6
2019-Sep-20 04:02 135 0 gusting 2 0.6
2019-Sep-20 03:57 068 0 gusting 0 0.6
2019-Sep-20 03:52 090 1.1
2019-Sep-20 03:47 068 0.6
2019-Sep-20 03:42 045 0.6
2019-Sep-20 03:37 090 0.6
2019-Sep-20 03:32 068 0.6
2019-Sep-20 03:27 090 0 gusting 2 0.6
2019-Sep-20 03:22 113 0 gusting 2 0.6
2019-Sep-20 03:17 045 1.1
2019-Sep-20 03:12 023 0 gusting 2 0.6
2019-Sep-20 03:07 023 0 gusting 2 0.6
2019-Sep-20 03:02 090 0 gusting 2 0.6
2019-Sep-20 02:57 068 0.6
2019-Sep-20 02:52 090 1.1
2019-Sep-20 02:47 113 1.1
2019-Sep-20 02:42 113 1.1
2019-Sep-20 02:37 090 1.1
2019-Sep-20 02:32 090 1.1
2019-Sep-20 02:27 090 1.1
2019-Sep-20 02:22 045 1.1
2019-Sep-20 02:17 113 0 gusting 3 1.1
2019-Sep-20 02:12 135 0 gusting 3 1.1
2019-Sep-20 02:07 113 1.1
2019-Sep-20 02:02 113 0 gusting 3 1.1
2019-Sep-20 01:57 045 0 gusting 2 1.1
2019-Sep-20 01:52 113 0 gusting 2 1.1
2019-Sep-20 01:47 113 0.6
2019-Sep-20 01:42 113 1.1
2019-Sep-20 01:37 068 1.1
2019-Sep-20 01:32 023 1.1
2019-Sep-20 01:27 023 1.1
2019-Sep-20 01:22 045 1.1
2019-Sep-20 01:17 090 1.1
2019-Sep-20 01:12 045 1.1
2019-Sep-20 01:07 068 1.1
2019-Sep-20 01:02 113 1.7
2019-Sep-20 00:57 113 1.7
2019-Sep-20 00:52 045 1.7
2019-Sep-20 00:47 068 1.7
2019-Sep-20 00:42 113 1.7
2019-Sep-20 00:37 113 1.7
2019-Sep-20 00:32 045 0 gusting 2 1.7
2019-Sep-20 00:27 113 0 gusting 2 1.7
2019-Sep-20 00:22 068 1.7
2019-Sep-20 00:17 068 0 gusting 2 1.7
2019-Sep-20 00:12 068 0 gusting 3 1.7
2019-Sep-20 00:07 068 0 gusting 3 1.7
2019-Sep-20 00:02 068 0 gusting 3 1.7
2019-Sep-19 23:57 068 0 gusting 1 1.7
2019-Sep-19 23:52 068 0 gusting 3 1.7
2019-Sep-19 23:47 225 0 gusting 3 1.7
2019-Sep-19 23:42 113 1 gusting 3 2.2
2019-Sep-19 23:37 045 1 gusting 3 2.2
2019-Sep-19 23:32 090 0 gusting 1 2.2
2019-Sep-19 23:27 113 2.2
2019-Sep-19 23:22 045 2.2
2019-Sep-19 23:17 090 0 gusting 2 2.2
2019-Sep-19 23:12 113 0 gusting 2 2.2
2019-Sep-19 23:07 113 0 gusting 1 2.2
2019-Sep-19 23:02 068 2.2
2019-Sep-19 22:57 045 2.2
2019-Sep-19 22:52 068 0 gusting 2 2.2
2019-Sep-19 22:47 090 0 gusting 2 2.2
2019-Sep-19 22:42 135 0 gusting 2 2.2
2019-Sep-19 22:37 090 1 gusting 2 2.2
2019-Sep-19 22:32 090 1 gusting 3 2.2
2019-Sep-19 22:27 135 1 gusting 3 2.2
2019-Sep-19 22:22 045 1 gusting 2 2.2
2019-Sep-19 22:17 068 1 gusting 3 2.2
2019-Sep-19 22:12 068 1 gusting 3 2.2
2019-Sep-19 22:07 068 1 gusting 3 2.2
2019-Sep-19 22:02 090 1 gusting 2 2.2
2019-Sep-19 21:57 090 1 gusting 2 2.2
2019-Sep-19 21:52 315 0 gusting 3 2.2
2019-Sep-19 21:47 068 0 gusting 3 2.2
2019-Sep-19 21:42 113 0 gusting 2 2.2
2019-Sep-19 21:37 090 2.2
2019-Sep-19 21:32 068 0 gusting 2 2.2
2019-Sep-19 21:27 068 0 gusting 2 2.2
2019-Sep-19 21:22 068 0 gusting 2 2.2
2019-Sep-19 21:17 090 0 gusting 2 2.2
2019-Sep-19 21:12 090 0 gusting 2 2.2
2019-Sep-19 21:06 090 0 gusting 2 2.2
2019-Sep-19 20:57 113 2.2
2019-Sep-19 20:52 068 2.2
2019-Sep-19 20:47 113 2.2
2019-Sep-19 20:42 068 2.2
2019-Sep-19 20:37 113 2.2
2019-Sep-19 20:32 113 2.2
2019-Sep-19 20:27 090 2.2
2019-Sep-19 20:22 023 2.2
2019-Sep-19 20:17 068 2.2
2019-Sep-19 20:12 135 2.2
2019-Sep-19 20:07 045 2.2
2019-Sep-19 20:02 090 2.2
2019-Sep-19 19:57 2.2
2019-Sep-19 19:52 090 2.8
2019-Sep-19 19:47 113 2.8
2019-Sep-19 19:42 158 2.8
2019-Sep-19 19:37 180 2.8
2019-Sep-19 19:32 180 2.8
2019-Sep-19 19:27 180 2.8
2019-Sep-19 19:22 180 2.8
2019-Sep-19 19:17 180 2.8
2019-Sep-19 19:12 180 3.3
2019-Sep-19 19:07 180 3.3
2019-Sep-19 19:02 180 3.3
2019-Sep-19 18:57 180 3.3
2019-Sep-19 18:52 180 3.3
2019-Sep-19 18:47 180 3.3
2019-Sep-19 18:42 180 3.3
2019-Sep-19 18:37 180 3.9
2019-Sep-19 18:32 180 3.9
2019-Sep-19 18:27 180 3.9
2019-Sep-19 18:22 180 3.9
2019-Sep-19 18:17 180 3.9
2019-Sep-19 18:12 180 3.9
2019-Sep-19 18:07 180 4.4
2019-Sep-19 18:02 180 4.4